When you browse on this site, cookies collect data to enhance your experience and personalize the content and advertising you see.
Visit our Privacy Policy to learn more. By continuing to use the site, you agree to this use of cookies and data.
  • In Hungary
  • List of Countries
  • For 7 days
  • Water Temperature
  • Weather Map
  • News
  • Weather Widgets
  • user-avatar
    Login

    Hourly Weather Tyrnyauz

    Today, 25 August, Sunday

    Time Temperature Precipitation Wind Pressure Humidity
    00:00 +12°C° 0.7 mm 2 mps 598 mmHg 87%
    01:00 +12°C° 1 mm 2 mps 598 mmHg 88%
    02:00 +12°C° 1 mm 2 mps 598 mmHg 89%
    03:00 +11°C° 0 mm 3 mps 598 mmHg 86%
    04:00 +11°C° 1.2 mm 3 mps 598 mmHg 86%
    05:00 +11°C° 1.2 mm 3 mps 598 mmHg 87%
    06:00 +11°C° 1.2 mm 3 mps 598 mmHg 87%
    07:00 +13°C° 0.2 mm 2 mps 599 mmHg 84%
    08:00 +14°C° 0.2 mm 2 mps 599 mmHg 80%
    09:00 +15°C° 0.2 mm 1 mps 600 mmHg 76%
    10:00 +15°C° 0.2 mm 1 mps 600 mmHg 75%
    11:00 +16°C° 0.2 mm 1 mps 600 mmHg 75%
    12:00 +16°C° 0.2 mm 1 mps 600 mmHg 74%
    13:00 +16°C° 1.3 mm 1 mps 600 mmHg 76%
    14:00 +16°C° 1.3 mm 1 mps 600 mmHg 79%
    15:00 +16°C° 1.3 mm 2 mps 600 mmHg 81%
    16:00 +15°C° 1.8 mm 1 mps 600 mmHg 85%
    17:00 +14°C° 1.8 mm 1 mps 599 mmHg 89%
    18:00 +14°C° 1.8 mm 1 mps 599 mmHg 93%
    19:00 +13°C° 0.3 mm 1 mps 599 mmHg 92%
    20:00 +11°C° 0.3 mm 0 mps 599 mmHg 91%
    21:00 +11°C° 0.3 mm 0 mps 599 mmHg 91%
    22:00 +11°C° 0.1 mm 0 mps 599 mmHg 91%
    23:00 +11°C° 0.1 mm 1 mps 599 mmHg 91%

    Tomorrow, 26 August, Monday

    Time Temperature Precipitation Wind Pressure Humidity
    00:00 +11°C° 0.1 mm 1 mps 599 mmHg 91%
    01:00 +10°C° 0 mm 1 mps 599 mmHg 92%
    02:00 +9°C° 0 mm 0 mps 598 mmHg 93%
    03:00 +8°C° 0 mm 0 mps 598 mmHg 94%
    04:00 +9°C° 0 mm 0 mps 598 mmHg 94%
    05:00 +9°C° 0 mm 0 mps 598 mmHg 94%
    06:00 +9°C° 0 mm 0 mps 599 mmHg 94%
    07:00 +11°C° 0.1 mm 1 mps 599 mmHg 92%
    08:00 +12°C° 0.1 mm 1 mps 600 mmHg 90%
    09:00 +14°C° 0.1 mm 1 mps 601 mmHg 89%
    10:00 +14°C° 0.2 mm 2 mps 600 mmHg 90%
    11:00 +14°C° 0.2 mm 2 mps 600 mmHg 92%
    12:00 +14°C° 0.2 mm 2 mps 600 mmHg 93%
    13:00 +13°C° 0.3 mm 2 mps 600 mmHg 94%
    14:00 +13°C° 0.3 mm 2 mps 600 mmHg 94%
    15:00 +13°C° 0.3 mm 1 mps 600 mmHg 95%
    16:00 +13°C° 0.2 mm 1 mps 600 mmHg 95%
    17:00 +13°C° 0.2 mm 1 mps 600 mmHg 96%
    18:00 +13°C° 0.2 mm 1 mps 600 mmHg 96%
    19:00 +12°C° 0.1 mm 1 mps 600 mmHg 97%
    20:00 +12°C° 0.1 mm 1 mps 600 mmHg 97%
    21:00 +12°C° 0.1 mm 1 mps 600 mmHg 98%
    22:00 +11°C° 0 mm 1 mps 599 mmHg 96%
    23:00 +11°C° 0 mm 1 mps 599 mmHg 95%

    Day after tomorrow, 27 August, Tuesday

    Time Temperature Precipitation Wind Pressure Humidity
    00:00 +10°C° 0 mm 1 mps 598 mmHg 93%
    01:00 +10°C° 0 mm 1 mps 598 mmHg 91%
    02:00 +10°C° 0 mm 1 mps 598 mmHg 89%
    03:00 +8°C° 0 mm 2 mps 598 mmHg 87%
    04:00 +9°C° 0 mm 1 mps 598 mmHg 84%
    05:00 +9°C° 0 mm 1 mps 597 mmHg 82%
    06:00 +9°C° 0 mm 1 mps 597 mmHg 79%
    07:00 +11°C° 0 mm 1 mps 598 mmHg 76%
    08:00 +13°C° 0 mm 1 mps 599 mmHg 73%
    09:00 +16°C° 0 mm 1 mps 600 mmHg 70%
    10:00 +16°C° 0.1 mm 1 mps 600 mmHg 70%
    11:00 +17°C° 0.1 mm 2 mps 600 mmHg 70%
    12:00 +17°C° 0.1 mm 2 mps 600 mmHg 70%
    13:00 +17°C° 0.5 mm 2 mps 600 mmHg 72%
    14:00 +17°C° 0.5 mm 2 mps 600 mmHg 73%
    15:00 +17°C° 0.5 mm 2 mps 600 mmHg 75%
    16:00 +16°C° 0.6 mm 1 mps 599 mmHg 80%
    17:00 +15°C° 0.6 mm 1 mps 599 mmHg 85%
    18:00 +14°C° 0.6 mm 1 mps 599 mmHg 90%
    19:00 +13°C° 0.3 mm 1 mps 598 mmHg 91%
    20:00 +12°C° 0.3 mm 1 mps 598 mmHg 92%
    21:00 +10°C° 0.3 mm 1 mps 597 mmHg 93%
    22:00 +10°C° 0 mm 1 mps 597 mmHg 92%
    23:00 +10°C° 0 mm 1 mps 597 mmHg 90%

    28 August, Wednesday

    Time Temperature Precipitation Wind Pressure Humidity
    00:00 +10°C° 0 mm 1 mps 597 mmHg 89%
    01:00 +9°C° 0 mm 1 mps 597 mmHg 88%
    02:00 +9°C° 0 mm 1 mps 597 mmHg 87%
    03:00 +9°C° 0 mm 1 mps 597 mmHg 86%
    04:00 +9°C° 0 mm 1 mps 597 mmHg 86%
    05:00 +8°C° 0 mm 2 mps 597 mmHg 85%
    06:00 +8°C° 0 mm 2 mps 597 mmHg 85%
    07:00 +11°C° 0 mm 1 mps 598 mmHg 79%
    08:00 +13°C° 0 mm 1 mps 598 mmHg 74%
    09:00 +15°C° 0 mm 1 mps 599 mmHg 69%
    10:00 +16°C° 0.1 mm 1 mps 599 mmHg 70%
    11:00 +17°C° 0.1 mm 2 mps 600 mmHg 71%
    12:00 +17°C° 0.1 mm 2 mps 600 mmHg 72%
    13:00 +17°C° 0.2 mm 2 mps 599 mmHg 76%
    14:00 +16°C° 0.2 mm 2 mps 599 mmHg 80%
    15:00 +15°C° 0.2 mm 1 mps 598 mmHg 84%
    16:00 +15°C° 0.2 mm 1 mps 598 mmHg 87%
    17:00 +14°C° 0.2 mm 1 mps 598 mmHg 89%
    18:00 +14°C° 0.2 mm 1 mps 598 mmHg 92%
    19:00 +13°C° 0.1 mm 1 mps 598 mmHg 92%
    20:00 +13°C° 0.1 mm 1 mps 598 mmHg 93%
    21:00 +11°C° 0.1 mm 0 mps 598 mmHg 93%
    22:00 +11°C° 0 mm 1 mps 598 mmHg 93%
    23:00 +11°C° 0 mm 1 mps 598 mmHg 93%

    29 August, Thursday

    Time Temperature Precipitation Wind Pressure Humidity
    00:00 +10°C° 0 mm 1 mps 597 mmHg 93%
    01:00 +9°C° 0 mm 1 mps 597 mmHg 90%
    02:00 +9°C° 0 mm 1 mps 597 mmHg 88%
    03:00 +8°C° 0 mm 2 mps 596 mmHg 85%
    04:00 +7°C° 0 mm 2 mps 596 mmHg 81%
    05:00 +7°C° 0 mm 2 mps 596 mmHg 76%
    06:00 +7°C° 0 mm 2 mps 596 mmHg 72%
    07:00 +9°C° 0 mm 2 mps 597 mmHg 68%
    08:00 +13°C° 0 mm 2 mps 598 mmHg 64%
    09:00 +15°C° 0 mm 1 mps 599 mmHg 60%
    10:00 +16°C° 0 mm 2 mps 599 mmHg 61%
    11:00 +16°C° 0 mm 2 mps 599 mmHg 61%
    12:00 +17°C° 0 mm 2 mps 600 mmHg 61%
    13:00 +17°C° 0 mm 2 mps 599 mmHg 64%
    14:00 +16°C° 0 mm 2 mps 599 mmHg 67%
    15:00 +16°C° 0 mm 2 mps 599 mmHg 71%
    16:00 +15°C° 0 mm 2 mps 598 mmHg 76%
    17:00 +14°C° 0 mm 2 mps 598 mmHg 81%
    18:00 +13°C° 0 mm 1 mps 597 mmHg 86%
    19:00 +11°C° 0 mm 1 mps 597 mmHg 88%
    20:00 +10°C° 0 mm 1 mps 596 mmHg 89%
    21:00 +9°C° 0 mm 1 mps 596 mmHg 91%
    22:00 +8°C° 0 mm 1 mps 596 mmHg 90%
    23:00 +8°C° 0 mm 1 mps 596 mmHg 89%

    30 August, Friday

    Time Temperature Precipitation Wind Pressure Humidity
    00:00 +7°C° 0 mm 2 mps 596 mmHg 88%
    01:00 +7°C° 0 mm 2 mps 596 mmHg 88%
    02:00 +8°C° 0 mm 2 mps 596 mmHg 88%
    03:00 +8°C° 0 mm 2 mps 596 mmHg 88%
    04:00 +8°C° 0 mm 2 mps 596 mmHg 87%
    05:00 +8°C° 0 mm 1 mps 596 mmHg 87%
    06:00 +8°C° 0 mm 1 mps 596 mmHg 86%
    07:00 +10°C° 0 mm 1 mps 597 mmHg 81%
    08:00 +12°C° 0 mm 1 mps 597 mmHg 76%
    09:00 +14°C° 0 mm 2 mps 598 mmHg 70%
    10:00 +14°C° 0.4 mm 2 mps 598 mmHg 72%
    11:00 +15°C° 0.4 mm 2 mps 599 mmHg 75%
    12:00 +15°C° 0.4 mm 2 mps 599 mmHg 77%
    13:00 +14°C° 0.7 mm 2 mps 598 mmHg 79%
    14:00 +14°C° 0.7 mm 2 mps 598 mmHg 82%
    15:00 +13°C° 0.7 mm 2 mps 598 mmHg 84%
    16:00 +13°C° 0.5 mm 1 mps 597 mmHg 87%
    17:00 +12°C° 0.5 mm 1 mps 597 mmHg 89%
    18:00 +11°C° 0.5 mm 1 mps 597 mmHg 92%
    19:00 +11°C° 0.2 mm 1 mps 597 mmHg 93%
    20:00 +10°C° 0.2 mm 1 mps 597 mmHg 94%
    21:00 +9°C° 0.2 mm 0 mps 597 mmHg 94%
    22:00 +10°C° 0.2 mm 1 mps 597 mmHg 94%
    23:00 +9°C° 0.2 mm 1 mps 597 mmHg 94%
    Show more